Location: Unspecified
(0.0000°N, 0.0000°E)
Time: 04:04:06
(UTC+00:00)

UWE-3 - Visible Passes

Search period start: 27 June 2019 00:00
Search period end: 07 July 2019 00:00
Orbit: 584 x 684 km, 97.6° (Epoch: 26 June)

Date Brightness Start Highest point End Pass type
(mag) Time Alt. Az. Time Alt. Az. Time Alt. Az.
28 Jun ? 04:43:27 10° E 04:44:14 10° ESE 04:45:00 10° ESE visible
28 Jun ? 18:28:06 10° SSW 18:31:25 23° WSW 18:34:41 10° NW visible
29 Jun ? 05:02:24 10° NE 05:05:51 21° ESE 05:09:20 10° SSE visible
29 Jun ? 18:51:53 10° WSW 18:53:02 11° WSW 18:54:10 10° W visible
30 Jun ? 05:23:10 10° NNE 05:27:29 41° ESE 05:31:52 10° S visible
03 Jul ? 04:53:29 10° ENE 04:56:20 16° ESE 04:59:11 10° SE visible
03 Jul ? 18:41:05 10° SW 18:43:26 15° WSW 18:45:48 10° WNW visible
04 Jul ? 05:13:53 10° NE 05:17:59 31° ESE 05:22:06 10° SSE visible
05 Jul ? 05:35:02 10° NNE 05:39:38 62° ESE 05:44:15 10° S visible
